Weather reports worldwide

Advertisment
Shobdon, United Kingdom (3520): temperature & dewpoint: 15.02.2017 14:00:00 - 21.02.2017 14:00:00 (GMT)Shobdon, United Kingdom (3520): temperature -20cm & temperature -100cm: 15.02.2017 14:00:00 - 21.02.2017 14:00:00 (GMT)Shobdon, United Kingdom (3520): wind speed & gusts: 15.02.2017 14:00:00 - 21.02.2017 14:00:00 (GMT)Shobdon, United Kingdom (3520): wind direction: 15.02.2017 14:00:00 - 21.02.2017 14:00:00 (GMT)Shobdon, United Kingdom (3520): reduced air pressure: 15.02.2017 14:00:00 - 21.02.2017 14:00:00 (GMT)Shobdon, United Kingdom (3520): visibility: 15.02.2017 14:00:00 - 21.02.2017 14:00:00 (GMT)Shobdon, United Kingdom (3520): sunshine duration: 15.02.2017 14:00:00 - 21.02.2017 14:00:00 (GMT)Shobdon, United Kingdom (3520): precipitation: 15.02.2017 14:00:00 - 21.02.2017 14:00:00 (GMT)
Date & Time tt [°C] td [°C] tt -20cm [°C] tt -100cm [°C] ff [km/h] ff [kn] fx [km/h] fx [kn] dd ppp [hPa] vv [km] sd [min] rr [mm]
21.02.2017 14:00:00 - - - - - - - - - - - - -
21.02.2017 13:00:00 13,0 10,5 - - 22 12 - - WSW 1015,1 21 0 0,0
21.02.2017 12:00:00 12,4 10,4 - - 13 7 - - SW 1015,7 35 0 0,0
21.02.2017 11:00:00 11,6 10,5 - - 11 6 - - SSW 1016,2 27 0 0,0
21.02.2017 10:00:00 11,4 10,6 - - 13 7 - - SW 1016,4 29 0 0,0
21.02.2017 09:00:00 10,3 9,7 7,5 7,0 9 5 - - WSW 1016,7 35 0 0,0
21.02.2017 08:00:00 8,4 7,9 - - 4 2 - - NNW 1017,1 30 0 0,0
21.02.2017 07:00:00 8,8 8,1 - - 5 3 - - WNW 1016,6 40 0 0,0
21.02.2017 06:00:00 8,4 7,8 - - 9 5 - - WSW 1016,7 27 0 0,0
21.02.2017 05:00:00 9,6 9,4 - - 2 1 - - WNW 1016,9 3,1 0 0,2
21.02.2017 04:00:00 9,9 9,7 - - 4 2 - - W 1016,8 4,2 0 0,0
21.02.2017 03:00:00 9,8 9,6 - - 8 4 - - W 1017,1 4,1 0 0,2
21.02.2017 02:00:00 10,3 9,4 - - 15 8 - - W 1017,5 8 0 0,0
21.02.2017 01:00:00 10,3 9,6 - - 15 8 - - W 1017,9 26 0 0,0
21.02.2017 00:00:00 11,1 9,4 - - 21 11 - - W 1018,1 26 - 0,0
20.02.2017 23:00:00 11,3 9,1 - - 18 10 - - W 1018,1 24 0 0,0
20.02.2017 22:00:00 11,6 9,3 - - 11 6 - - W 1018,3 28 0 0,0
20.02.2017 21:00:00 11,7 9,3 - - 9 5 - - W 1018,5 35 0 0,0
20.02.2017 20:00:00 11,5 9,5 - - 8 4 - - W 1018,5 35 0 0,0
20.02.2017 19:00:00 12,1 9,5 - - 11 6 - - W 1018,8 35 0 0,0
20.02.2017 18:00:00 12,2 9,3 - - 21 11 - - W 1018,2 40 0 0,0
20.02.2017 17:00:00 12,9 9,9 - - 21 11 48 26 W 1018,2 35 18 0,0
20.02.2017 16:00:00 13,9 10,5 - - 24 13 55 30 WNW 1017,0 35 54 0,0
20.02.2017 15:00:00 14,3 10,5 - - 15 8 50 27 W 1016,9 35 0 0,0
20.02.2017 14:00:00 14,2 10,1 - - 24 13 - - W 1017,8 35 0 0,0
20.02.2017 13:00:00 14,2 10,4 - - 24 13 - - WSW 1018,1 35 0 0,0
20.02.2017 12:00:00 12,9 10,7 - - 15 8 - - SSW 1018,5 30 0 0,0
20.02.2017 11:00:00 11,6 10,4 - - 13 7 - - SSW 1019,1 30 0 0,0
20.02.2017 10:00:00 11,6 10,0 - - 21 11 - - W 1019,1 30 0 0,0
20.02.2017 09:00:00 11,4 10,1 7,0 6,7 15 8 - - W 1019,5 27 6 0,0
20.02.2017 08:00:00 10,8 9,7 - - 13 7 - - WSW 1019,5 30 0 0,0
20.02.2017 07:00:00 9,7 8,7 - - 4 2 - - WNW 1019,5 35 0 0,0
20.02.2017 06:00:00 11,8 10,0 - - 11 6 - - W 1019,5 35 0 0,0
20.02.2017 05:00:00 11,0 9,5 - - 15 8 - - W 1019,0 35 0 0,0
20.02.2017 04:00:00 10,9 9,6 - - 11 6 - - W 1018,9 35 0 0,0
20.02.2017 03:00:00 11,0 10,2 - - 11 6 - - WSW 1019,5 25 0 0,0
20.02.2017 02:00:00 10,5 9,9 - - 2 1 - - W 1020,2 18 0 0,0
20.02.2017 01:00:00 10,5 9,7 - - 5 3 - - W 1020,4 26 0 0,0
20.02.2017 00:00:00 10,5 10,0 - - 15 8 - - SW 1020,7 26 - 0,0
19.02.2017 23:00:00 8,4 7,7 - - 2 1 - - NNE 1021,1 28 0 0,0
19.02.2017 22:00:00 9,5 8,1 - - 8 4 - - W 1020,8 35 0 0,0
19.02.2017 21:00:00 9,8 8,3 - - 9 5 - - W 1021,0 35 0 0,0
19.02.2017 20:00:00 8,3 7,2 - - 2 1 - - WSW 1021,1 30 0 0,0
19.02.2017 19:00:00 9,2 7,9 - - 4 2 - - W 1021,2 30 0 0,0
19.02.2017 18:00:00 10,4 8,8 - - 9 5 - - W 1020,8 30 0 0,0
19.02.2017 17:00:00 11,0 9,0 - - 11 6 - - WSW 1020,7 35 0 0,0
19.02.2017 16:00:00 10,8 9,0 - - 15 8 - - W 1021,1 29 0 0,0
19.02.2017 15:00:00 11,1 8,9 - - 21 11 - - WSW 1021,1 23 0 0,0
19.02.2017 14:00:00 11,8 8,2 - - 16 9 - - W 1021,2 35 0 0,0
19.02.2017 13:00:00 11,3 7,9 - - 11 6 - - W 1021,6 40 0 0,0
19.02.2017 12:00:00 10,7 7,5 - - 16 9 - - W 1022,5 40 0 0,0
19.02.2017 11:00:00 10,2 6,7 - - 13 7 - - W 1022,6 35 0 0,0
19.02.2017 10:00:00 9,6 6,5 - - 22 12 - - W 1022,4 30 0 0,0
19.02.2017 09:00:00 9,0 5,5 6,7 6,7 9 5 - - W 1022,3 30 0 0,0
19.02.2017 08:00:00 8,4 5,5 - - 15 8 - - W 1021,9 30 0 0,0
19.02.2017 07:00:00 8,5 6,0 - - 8 4 - - SW 1021,3 29 0 0,0
19.02.2017 06:00:00 6,4 4,5 - - 8 4 - - SSW 1021,1 24 0 0,0
19.02.2017 05:00:00 7,0 5,0 - - 13 7 - - WSW 1020,9 27 0 0,0
19.02.2017 04:00:00 6,7 4,9 - - 9 5 - - WSW 1021,2 23 0 0,0
19.02.2017 03:00:00 9,0 7,1 - - 13 7 - - W 1021,5 17 0 0,0
19.02.2017 02:00:00 9,1 7,4 - - 13 7 - - W 1021,5 15 0 0,0
19.02.2017 01:00:00 8,8 7,4 - - 16 9 - - WSW 1021,6 7 0 0,0
19.02.2017 00:00:00 9,3 7,0 - - 11 6 - - WSW 1022,0 12 - 0,0
18.02.2017 23:00:00 9,0 6,8 - - 15 8 - - WSW 1022,1 9 0 0,0
18.02.2017 22:00:00 9,0 6,8 - - 5 3 - - SW 1022,6 9 0 0,0
18.02.2017 21:00:00 8,5 6,7 - - 8 4 - - W 1022,7 7 0 0,0
18.02.2017 20:00:00 7,7 6,6 - - 8 4 - - WSW 1022,5 6 0 0,0
18.02.2017 19:00:00 6,0 5,3 - - 4 2 - - NE 1023,0 3,7 0 0,0
18.02.2017 18:00:00 7,0 5,2 - - 2 1 - - NW 1022,3 7 6 0,0
18.02.2017 17:00:00 9,6 6,8 - - 13 7 - - S 1021,7 9 60 0,0
18.02.2017 16:00:00 11,0 8,1 - - 8 4 - - S 1021,9 10 42 0,0
18.02.2017 15:00:00 11,7 7,2 - - 18 10 - - SW 1022,3 20 48 0,0
18.02.2017 14:00:00 10,6 6,9 - - 11 6 - - SW 1022,8 18 54 0,0
18.02.2017 13:00:00 9,8 6,9 - - 11 6 - - SW 1023,2 16 30 0,0
18.02.2017 12:00:00 7,9 6,5 - - 5 3 - - S 1024,4 12 0 0,0
18.02.2017 11:00:00 7,0 6,2 - - 8 4 - - SSW 1024,8 10 0 0,0
18.02.2017 10:00:00 6,4 6,1 - - 5 3 - - S 1024,7 7 0 0,0
18.02.2017 09:00:00 5,7 5,4 6,2 6,5 5 3 - - SW 1024,6 5 0 0,0
18.02.2017 08:00:00 5,7 5,3 - - 9 5 - - S 1024,1 6 0 0,0
18.02.2017 07:00:00 6,2 5,6 - - 5 3 - - S 1023,7 9 0 0,0
18.02.2017 06:00:00 6,3 5,9 - - 8 4 - - S 1023,8 6 0 0,0
18.02.2017 05:00:00 6,5 6,1 - - 4 2 - - S 1023,9 4,7 0 0,0
18.02.2017 04:00:00 6,7 6,3 - - 8 4 - - SSW 1024,0 5 0 0,0
18.02.2017 03:00:00 7,0 6,6 - - 5 3 - - S 1024,4 4,4 0 0,0
18.02.2017 02:00:00 7,2 6,7 - - 5 3 - - SSW 1024,8 5 0 0,0
18.02.2017 01:00:00 6,6 6,2 - - 2 1 - - SE 1025,1 4,5 0 0,0
18.02.2017 00:00:00 6,6 6,2 - - 2 1 - - ENE 1025,4 5 - 0,0
17.02.2017 23:00:00 6,1 5,2 - - 2 1 - - E 1025,7 6 0 0,0
17.02.2017 22:00:00 6,4 5,6 - - 8 4 - - E 1025,6 8 0 0,0
17.02.2017 21:00:00 6,6 5,2 - - 4 2 - - ESE 1025,7 9 0 0,0
17.02.2017 20:00:00 7,1 5,7 - - 4 2 - - E 1025,6 9 0 0,0
17.02.2017 19:00:00 8,0 6,2 - - 5 3 - - ESE 1026,0 11 0 0,0
17.02.2017 18:00:00 8,5 6,5 - - 5 3 - - SSE 1025,9 12 0 0,0
17.02.2017 17:00:00 9,0 6,6 - - 5 3 - - SE 1025,7 12 0 0,0
17.02.2017 16:00:00 10,0 6,2 - - 8 4 - - S 1026,0 22 6 0,0
17.02.2017 15:00:00 11,8 6,7 - - 5 3 - - WSW 1026,1 19 54 0,0
17.02.2017 14:00:00 11,1 5,8 - - 9 5 - - SW 1026,7 20 60 0,0
17.02.2017 13:00:00 10,7 6,3 - - 9 5 - - S 1027,3 20 42 0,0
17.02.2017 12:00:00 10,8 5,8 - - 5 3 - - S 1027,9 23 42 0,0
17.02.2017 11:00:00 9,2 6,7 - - 9 5 - - SW 1028,1 22 0 0,0
17.02.2017 10:00:00 7,8 6,8 - - 4 2 - - E 1027,9 12 0 0,0
17.02.2017 09:00:00 6,8 6,5 5,9 6,4 2 1 - - E 1027,7 9 0 0,0
17.02.2017 08:00:00 5,6 5,3 - - 2 1 - - NE 1027,7 7 0 0,0
17.02.2017 07:00:00 5,7 5,3 - - 4 2 - - NNE 1027,3 7 0 0,0
17.02.2017 06:00:00 5,8 5,1 - - 2 1 - - S 1027,3 8 0 0,0
17.02.2017 05:00:00 6,8 5,5 - - 4 2 - - E 1027,3 13 0 0,0
17.02.2017 04:00:00 8,0 5,7 - - 9 5 - - W 1027,2 24 0 0,0
17.02.2017 03:00:00 7,4 5,6 - - 9 5 - - WSW 1027,2 21 0 0,0
17.02.2017 02:00:00 8,0 5,8 - - 16 9 - - W 1027,3 25 0 0,0
17.02.2017 01:00:00 8,2 5,9 - - 18 10 - - W 1027,6 27 0 0,0
17.02.2017 00:00:00 7,9 5,5 - - 9 5 - - W 1027,7 28 - 0,0
16.02.2017 23:00:00 7,9 5,3 - - 11 6 - - W 1028,0 25 0 0,0
16.02.2017 22:00:00 7,6 4,9 - - 13 7 - - WSW 1028,0 30 0 0,0
16.02.2017 21:00:00 8,1 3,8 - - 4 2 - - SSW 1028,1 40 0 0,0
16.02.2017 20:00:00 8,8 4,7 - - 18 10 - - W 1028,0 35 0 0,0
16.02.2017 19:00:00 9,0 4,2 - - 15 8 - - W 1027,8 40 0 0,0
16.02.2017 18:00:00 9,0 4,0 - - 9 5 - - W 1027,6 35 0 0,0
16.02.2017 17:00:00 9,8 3,3 - - 13 7 - - W 1027,5 35 0 0,0
16.02.2017 16:00:00 9,6 5,2 - - 15 8 - - W 1027,4 30 0 0,0
16.02.2017 15:00:00 8,8 4,6 - - 13 7 - - WNW 1027,4 30 0 0,0
16.02.2017 14:00:00 10,5 5,0 - - 21 11 - - W 1027,5 30 0 0,0
16.02.2017 13:00:00 11,0 4,9 - - 24 13 - - W 1028,0 27 36 0,0
16.02.2017 12:00:00 9,9 5,7 - - 22 12 - - W 1028,8 28 12 0,0
16.02.2017 11:00:00 8,2 5,9 - - 5 3 - - SSW 1029,3 20 18 0,0
16.02.2017 10:00:00 7,1 5,3 - - 9 5 - - SSW 1029,4 25 0 0,0
16.02.2017 09:00:00 6,1 5,3 5,7 6,4 9 5 - - SW 1029,4 20 48 0,2
16.02.2017 08:00:00 2,2 1,9 - - 8 4 - - SW 1029,1 16 6 0,0
16.02.2017 07:00:00 2,1 1,0 - - 8 4 - - WSW 1028,9 13 0 0,0
16.02.2017 06:00:00 3,0 2,6 - - 8 4 - - SW 1028,8 15 0 0,0
16.02.2017 05:00:00 3,8 3,1 - - 11 6 - - W 1028,8 18 0 0,0
16.02.2017 04:00:00 4,0 3,7 - - 8 4 - - S 1028,4 16 0 0,0
16.02.2017 03:00:00 4,0 3,4 - - 5 3 - - W 1028,7 16 0 0,0
16.02.2017 02:00:00 4,7 3,6 - - 4 2 - - WSW 1028,5 15 0 0,0
16.02.2017 01:00:00 7,4 5,0 - - 9 5 - - W 1027,8 18 0 0,0
16.02.2017 00:00:00 8,1 5,5 - - 18 10 - - W 1027,5 20 - 0,0
15.02.2017 23:00:00 8,4 6,6 - - 15 8 - - WSW 1027,4 19 0 0,0
15.02.2017 22:00:00 8,1 6,7 - - 4 2 - - WSW 1027,0 18 0 0,0
15.02.2017 21:00:00 7,9 7,3 - - 5 3 - - W 1026,8 25 0 0,0
15.02.2017 20:00:00 8,1 6,8 - - 15 8 - - WSW 1026,5 16 0 0,0
15.02.2017 19:00:00 8,2 6,1 - - 9 5 - - WSW 1026,2 25 0 0,0
15.02.2017 18:00:00 7,9 5,3 - - 15 8 - - WSW 1026,0 27 0 0,0
15.02.2017 17:00:00 9,3 6,8 - - 11 6 - - SW 1025,4 28 18 0,0
15.02.2017 16:00:00 9,2 7,5 - - 8 4 - - WSW 1025,2 27 0 0,0
15.02.2017 15:00:00 9,4 7,7 - - 9 5 - - WSW 1025,2 30 0 0,0
15.02.2017 14:00:00 8,9 7,8 - - 4 2 - - SSW 1025,0 27 0 0,2

tt = temperature
td = dewpoint
tt -20cm = temperature -20cm
tt -100cm = temperature -100cm
ff = wind speed
fx = gusts
dd = wind direction
ppp = reduced air pressure
vv = visibility
sd = sunshine duration
rr = precipitation

Next stations